Weather History for Torrington, WY

Change the Weather History Date:

Friday, August 30, 2013

  Actual Average Record
Temperature  
Mean Temperature 81 °F 68 °F  
Max Temperature 98 °F 85 °F 98 °F (2005)
Min Temperature 63 °F 51 °F 47 °F (2004)
Degree Days  
Heating Degree Days 0 1  
Month to date heating degree days 0 9  
Since 1 June heating degree days 36 90  
Since 1 July heating degree days 2 15  
Cooling Degree Days 16 4  
Month to date cooling degree days 274 212  
Year to date cooling degree days 761 628  
Since 1 June cooling degree days 722 610  
Growing Degree Days 30 (Base 50)    
Moisture  
Dew Point 57 °F    
Average Humidity 49    
Maximum Humidity 78    
Minimum Humidity 20    
Precipitation  
Precipitation 0.05 in 0.04 in 0.59 in (2003)
Month to date precipitation 0.88 1.24  
Year to date precipitation 6.81 10.93  
Sea Level Pressure  
Sea Level Pressure 29.95 in    
Wind  
Wind Speed 8 mph (SE)    
Max Wind Speed 31 mph    
Max Gust Speed 43 mph    
Visibility 10 miles    
Events Rain , Thunderstorm    
T = Trace of Precipitation, MM = Missing Value Source: NWS Daily Summary

Daily Weather History Graph

Daily Weather History Graph

Search for Another Location

Airport:

Trip Planner

Search our weather history database for the weather conditions in past years. The results will help you decide how hot, cold, wet, or windy it might be!

Date:

Astronomy

Aug. 30, 2013 Rise Set
Actual Time 6:20 AM MDT 7:33 PM MDT
Civil Twilight 5:51 AM MDT 8:01 PM MDT
Nautical Twilight 5:16 AM MDT 8:36 PM MDT
Astronomical Twilight 4:40 AM MDT 9:12 PM MDT
Moon 12:57 AM MDT (8/30) 3:53 PM MDT (8/30)
Length of Visible Light 14h 10m
Length of Day
13h 12m
Waning Crescent, 28% of the Moon is Illuminated
Aug 30
Waning Crescent
Sep 5
New
Sep 12
First Quarter
Sep 19
Full
Sep 26
Last Quarter

Hourly Weather History & Observations

Time (MDT) Temp. Heat Index Dew Point Humidity Pressure Visibility Wind Dir Wind Speed Gust Speed Precip Events Conditions
12:53 AM 69.1 °F - 55.0 °F 61% 29.97 in 10.0 mi WNW 4.6 mph - N/A   Clear
1:53 AM 66.9 °F - 57.0 °F 70% 29.97 in 10.0 mi NNW 6.9 mph - N/A   Clear
2:53 AM 64.9 °F - 55.9 °F 73% 29.97 in 10.0 mi North 3.5 mph - N/A   Clear
3:53 AM 66.9 °F - 57.9 °F 73% 29.98 in 10.0 mi North 11.5 mph - N/A   Clear
4:53 AM 66.9 °F - 57.0 °F 70% 29.97 in 10.0 mi NE 6.9 mph - N/A   Clear
5:53 AM 64.9 °F - 57.0 °F 75% 29.97 in 10.0 mi Calm Calm - N/A   Clear
6:53 AM 64.0 °F - 57.9 °F 80% 29.99 in 10.0 mi South 3.5 mph - N/A   Clear
7:53 AM 68.0 °F - 57.9 °F 70% 30.00 in 10.0 mi Calm Calm - N/A   Clear
8:53 AM 72.0 °F - 59.0 °F 64% 30.01 in 10.0 mi SW 4.6 mph - N/A   Clear
9:53 AM 78.1 °F - 61.0 °F 56% 30.01 in 10.0 mi Variable 3.5 mph - N/A   Clear
10:53 AM 84.0 °F 83.8 °F 59.0 °F 43% 29.97 in 10.0 mi ESE 6.9 mph - N/A   Clear
11:53 AM 87.1 °F 86.7 °F 60.1 °F 40% 29.96 in 10.0 mi SSE 8.1 mph - N/A   Clear
12:53 PM 90.0 °F 89.7 °F 60.1 °F 37% 29.94 in 10.0 mi SSE 5.8 mph - N/A   Clear
1:53 PM 91.9 °F 91.2 °F 59.0 °F 33% 29.91 in 10.0 mi ESE 4.6 mph - N/A   Clear
2:53 PM 95.0 °F - 50.0 °F 22% 29.87 in 10.0 mi Variable 3.5 mph - N/A   Clear
3:53 PM 96.1 °F - 48.9 °F 20% 29.84 in 10.0 mi NNW 9.2 mph - N/A   Clear
4:23 PM 80.6 °F 80.8 °F 57.2 °F 45% 30.05 in 10.0 mi South 24.2 mph 42.6 mph N/A   Clear
4:53 PM 78.1 °F - 57.0 °F 48% 29.89 in 10.0 mi South 21.9 mph 31.1 mph N/A   Clear
5:02 PM 78.8 °F - 57.2 °F 47% 30.04 in 10.0 mi South 23.0 mph 29.9 mph N/A Thunderstorm Clear
5:53 PM 70.0 °F - 61.0 °F 73% 29.94 in 10.0 mi SSE 12.7 mph 27.6 mph 0.05 in Rain , Thunderstorm Light Thunderstorms and Rain
5:58 PM 71.6 °F - 60.8 °F 69% 30.06 in 10.0 mi ESE 13.8 mph 23.0 mph 0.00 in   Scattered Clouds
6:53 PM 75.9 °F - 57.0 °F 52% 29.89 in 10.0 mi SE 13.8 mph - 0.00 in   Clear
7:53 PM 70.0 °F - 57.9 °F 65% 29.88 in 10.0 mi South 9.2 mph - N/A   Clear
8:53 PM 68.0 °F - 59.0 °F 73% 29.89 in 10.0 mi NE 9.2 mph - N/A   Clear
9:53 PM 68.0 °F - 60.1 °F 76% 29.88 in 10.0 mi SE 4.6 mph - N/A   Clear
10:39 PM 69.8 °F - 57.2 °F 64% 30.05 in 10.0 mi East 8.1 mph - N/A   Clear
10:53 PM 69.1 °F - 55.9 °F 63% 29.89 in 10.0 mi ESE 6.9 mph - N/A   Clear
11:53 PM 68.0 °F - 57.0 °F 68% 29.89 in 10.0 mi ESE 15.0 mph - N/A   Clear